�N����,����,�~����,�C��,���x,�C��,����,���ϕ���,�ő�u�ԕ���,�ő厞����,���˗�,�I�_���x,�n�����x,�ő啗���N��,DTYPE
"20/09/12","00:10",0.0,23.6,94.1,1009.0,325.8,0.8,1.6,344.0,0.00,22.6,25.6,"00:08:00",1
"20/09/12","00:20",0.0,23.5,94.1,1008.6,334.3,0.7,1.4,348.3,0.00,22.5,25.5,"00:14:32",1
"20/09/12","00:30",0.0,23.3,94.2,1008.6,313.3,1.1,1.6,324.0,0.00,22.4,25.6,"00:23:44",1
"20/09/12","00:40",0.0,23.2,94.3,1008.6,308.6,0.8,1.3,323.8,0.00,22.3,25.6,"00:36:56",1
"20/09/12","00:50",0.0,23.2,94.4,1008.1,306.8,0.8,1.1,309.8,0.00,22.3,25.5,"00:43:04",1
"20/09/12","01:00",0.0,23.1,94.4,1008.1,293.5,0.7,1.2,312.7,0.00,22.2,25.5,"00:56:56",1
"20/09/12","01:10",0.0,23.1,94.5,1008.1,299.0,0.8,1.6,324.2,0.00,22.2,25.3,"01:03:52",1
"20/09/12","01:20",0.0,23.1,94.6,1008.1,324.0,1.0,1.6,335.0,0.00,22.2,25.4,"01:13:44",1
"20/09/12","01:30",0.0,22.9,94.6,1007.6,313.0,0.8,1.3,315.2,0.00,22.0,25.4,"01:29:52",1
"20/09/12","01:40",0.0,23.0,94.8,1008.3,331.0,1.0,1.6,325.5,0.00,22.2,25.4,"01:39:36",1
"20/09/12","01:50",0.0,23.0,94.8,1007.8,322.1,1.1,1.6,338.4,0.00,22.2,25.4,"01:44:16",1
"20/09/12","02:00",0.0,23.0,94.9,1007.8,334.9,1.0,2.2,341.1,0.00,22.2,25.3,"01:58:00",1
"20/09/12","02:10",0.0,23.0,94.8,1007.6,308.3,0.7,1.8,313.6,0.00,22.2,25.4,"02:00:24",1
"20/09/12","02:20",0.0,22.9,94.9,1007.8,311.5,0.7,1.4,316.2,0.00,22.1,25.2,"02:16:24",1
"20/09/12","02:30",0.0,22.9,95.0,1007.8,296.5,0.7,1.3,320.0,0.00,22.1,25.1,"02:26:48",1
"20/09/12","02:40",0.0,22.9,95.0,1008.1,309.7,0.8,1.2,328.5,0.00,22.1,25.2,"02:35:04",1
"20/09/12","02:50",0.0,22.8,95.0,1007.8,318.3,1.0,1.6,323.2,0.00,22.0,25.2,"02:46:16",1
"20/09/12","03:00",0.0,22.6,95.1,1007.6,297.5,0.7,1.1,309.9,0.00,21.8,24.9,"02:50:08",1
"20/09/12","03:10",0.0,22.8,95.2,1007.1,300.2,1.0,1.7,312.2,0.00,22.0,25.1,"03:09:36",1
"20/09/12","03:20",0.0,22.8,95.1,1007.4,314.7,1.1,1.7,337.3,0.00,22.0,25.1,"03:16:32",1
"20/09/12","03:30",0.0,22.7,95.2,1007.4,320.8,0.7,1.2,314.7,0.00,21.9,25.0,"03:20:32",1
"20/09/12","03:40",0.0,22.6,95.4,1007.1,316.3,1.0,1.9,324.9,0.00,21.9,25.0,"03:38:56",1
"20/09/12","03:50",0.0,22.6,95.3,1007.4,304.2,0.8,1.6,320.3,0.00,21.8,25.1,"03:40:08",1
"20/09/12","04:00",0.0,22.8,95.4,1007.6,331.8,0.7,1.1,316.4,0.00,22.1,24.9,"03:53:20",1
"20/09/12","04:10",0.0,22.9,95.4,1007.6,302.2,0.6,1.1,309.6,0.00,22.2,25.0,"04:04:40",1
"20/09/12","04:20",0.0,23.0,95.4,1007.8,319.5,0.8,1.3,324.7,0.00,22.3,25.0,"04:17:52",1
"20/09/12","04:30",0.0,23.0,95.4,1008.1,317.5,0.6,1.2,319.1,0.00,22.3,25.1,"04:23:52",1
"20/09/12","04:40",0.0,23.1,95.4,1007.8,320.7,1.0,1.6,313.9,0.00,22.4,24.9,"04:35:12",1
"20/09/12","04:50",0.0,23.2,95.4,1008.3,330.3,0.8,1.9,345.3,0.00,22.5,24.7,"04:46:32",1
"20/09/12","05:00",0.0,23.3,95.4,1007.8,328.0,0.6,1.2,336.0,0.00,22.6,25.0,"04:50:16",1
"20/09/12","05:10",0.0,23.3,95.4,1008.1,325.1,0.6,1.6,343.7,0.00,22.6,25.0,"05:02:40",1
"20/09/12","05:20",0.0,23.4,95.4,1008.1,316.4,0.6,1.1,330.5,0.00,22.7,25.1,"05:19:20",1
"20/09/12","05:30",0.0,23.4,95.4,1008.3,313.2,0.5,0.9,348.3,0.00,22.7,25.0,"05:24:00",1
"20/09/12","05:40",0.0,23.4,95.4,1008.1,292.9,0.6,0.9,307.9,0.00,22.7,25.1,"05:30:40",1
"20/09/12","05:50",0.0,23.4,95.5,1008.1,294.2,0.6,0.9,318.3,0.00,22.7,25.1,"05:46:08",1
"20/09/12","06:00",0.0,23.4,95.5,1008.3,328.9,1.0,1.6,329.7,0.00,22.7,25.2,"05:57:52",1
"20/09/12","06:10",0.0,23.6,95.5,1008.3,322.9,1.0,2.0,343.2,0.00,22.9,25.1,"06:00:48",1
"20/09/12","06:20",0.0,23.7,95.5,1008.3,324.2,0.7,1.3,319.8,0.00,23.0,25.2,"06:10:40",1
"20/09/12","06:30",0.0,23.9,95.5,1008.3,297.5,0.3,1.0,268.7,0.00,23.2,24.7,"06:20:32",1
"20/09/12","06:40",0.0,24.0,95.5,1008.1,337.8,0.6,1.0,335.5,0.01,23.3,25.1,"06:33:04",1
"20/09/12","06:50",0.0,24.8,95.6,1007.8,332.7,0.8,1.3,327.6,0.02,24.1,25.3,"06:41:12",1
"20/09/12","07:00",0.0,25.4,95.3,1008.1,299.4,0.6,1.4,339.8,0.04,24.6,25.3,"06:50:48",1
"20/09/12","07:10",0.0,26.3,95.2,1007.6,2.4,0.3,0.9,343.0,0.06,25.5,25.3,"07:06:16",1
"20/09/12","07:20",0.0,27.0,94.2,1007.6,182.6,0.5,1.2,233.2,0.10,26.0,25.3,"07:13:36",1
"20/09/12","07:30",0.0,26.2,93.0,1007.1,181.5,0.6,1.4,135.0,0.12,25.0,25.4,"07:26:08",1
"20/09/12","07:40",0.0,26.5,92.8,1007.8,144.1,1.1,2.2,45.4,0.14,25.3,25.3,"07:37:04",1
"20/09/12","07:50",0.0,26.6,91.9,1007.6,124.6,1.2,2.8,122.3,0.17,25.2,25.8,"07:46:56",1
"20/09/12","08:00",0.0,26.5,90.1,1008.1,116.1,1.6,3.3,103.8,0.12,24.8,25.5,"07:54:32",1
"20/09/12","08:10",0.0,27.5,88.5,1007.1,121.8,1.3,3.1,96.4,0.24,25.5,25.6,"08:07:28",1
"20/09/12","08:20",0.0,28.4,83.5,1007.4,125.9,1.3,2.7,119.5,0.25,25.4,26.1,"08:17:52",1
"20/09/12","08:30",0.0,29.2,78.7,1007.4,146.3,1.2,3.4,115.1,0.27,25.2,25.7,"08:22:56",1
"20/09/12","08:40",0.0,29.5,74.3,1007.6,160.0,1.3,3.1,143.4,0.32,24.5,26.2,"08:34:48",1
"20/09/12","08:50",0.0,29.7,72.1,1008.1,147.6,1.1,2.9,127.4,0.23,24.2,26.2,"08:46:32",1
"20/09/12","09:00",0.0,29.2,72.4,1007.6,123.0,1.3,2.9,121.9,0.16,23.8,26.2,"08:55:12",1
"20/09/12","09:10",0.0,28.6,73.3,1007.4,121.3,1.6,4.2,63.2,0.11,23.4,26.5,"09:00:32",1
"20/09/12","09:20",0.0,28.4,74.3,1006.7,124.3,1.3,3.6,152.9,0.07,23.4,26.4,"09:19:36",1
"20/09/12","09:30",0.0,28.4,74.6,1006.7,109.7,1.6,3.7,106.5,0.09,23.5,26.4,"09:28:48",1
"20/09/12","09:40",0.0,28.7,75.9,1006.7,114.2,1.7,4.0,105.0,0.22,24.1,26.4,"09:36:56",1
"20/09/12","09:50",0.0,29.6,72.7,1006.9,104.2,2.1,4.1,135.2,0.52,24.2,26.6,"09:42:08",1
"20/09/12","10:00",0.0,29.5,72.5,1007.1,93.1,1.5,3.2,104.0,0.29,24.1,26.6,"09:51:28",1
"20/09/12","10:10",0.0,29.4,72.9,1007.1,98.0,1.0,2.6,119.2,0.23,24.1,26.9,"10:01:44",1
"20/09/12","10:20",0.0,29.7,72.6,1007.1,66.2,1.3,4.0,26.3,0.37,24.3,26.9,"10:16:56",1
"20/09/12","10:30",0.0,30.0,71.6,1007.1,103.3,1.3,2.9,14.2,0.38,24.3,27.1,"10:22:08",1
"20/09/12","10:40",0.0,30.5,68.8,1007.4,113.2,1.2,2.4,87.0,0.37,24.2,27.3,"10:35:52",1
"20/09/12","10:50",0.0,30.0,69.0,1007.1,98.7,1.1,2.2,98.1,0.11,23.7,27.5,"10:41:20",1
"20/09/12","11:00",0.0,29.5,69.6,1007.1,113.4,1.7,4.1,96.0,0.14,23.4,27.3,"10:58:24",1
"20/09/12","11:10",0.0,29.7,69.0,1007.1,151.8,1.3,2.7,127.3,0.21,23.4,27.7,"11:07:44",1
"20/09/12","11:20",0.0,29.9,68.3,1007.4,166.8,1.7,3.2,117.1,0.22,23.5,27.5,"11:14:16",1
"20/09/12","11:30",0.0,30.2,67.8,1006.9,189.3,1.6,3.3,189.8,0.22,23.6,27.4,"11:29:52",1
"20/09/12","11:40",0.0,30.3,68.5,1006.7,165.0,1.6,3.7,218.9,0.25,23.9,27.5,"11:38:40",1
"20/09/12","11:50",0.0,30.5,66.7,1007.1,139.6,1.3,3.3,151.6,0.20,23.6,27.4,"11:44:40",1
"20/09/12","12:00",0.0,30.3,67.6,1007.1,123.3,1.3,3.1,109.9,0.20,23.7,27.7,"11:51:20",1
"20/09/12","12:10",0.0,31.1,67.6,1007.1,121.3,1.1,3.2,99.2,0.39,24.4,27.7,"12:00:56",1
"20/09/12","12:20",0.0,31.7,63.6,1007.1,106.1,1.2,2.4,117.7,0.37,24.0,28.1,"12:18:00",1
"20/09/12","12:30",0.0,31.8,62.8,1007.1,132.2,1.1,2.4,209.8,0.44,23.9,28.0,"12:25:20",1
"20/09/12","12:40",0.0,32.2,62.2,1007.1,87.4,1.0,2.8,125.1,0.31,24.1,28.2,"12:38:40",1
"20/09/12","12:50",0.0,32.5,61.1,1006.7,63.5,1.3,2.8,115.3,0.62,24.1,28.3,"12:42:40",1
"20/09/12","13:00",0.0,32.5,59.8,1006.7,73.0,1.3,3.3,108.0,0.35,23.7,28.5,"12:52:56",1
"20/09/12","13:10",0.0,32.7,61.2,1006.4,83.0,1.1,2.8,45.2,0.41,24.3,28.7,"13:08:08",1
"20/09/12","13:20",0.0,32.9,59.3,1006.2,112.8,1.5,3.2,136.1,0.48,23.9,28.9,"13:15:36",1
"20/09/12","13:30",0.0,32.1,63.0,1005.5,117.3,1.8,4.9,121.5,0.30,24.2,29.0,"13:24:32",1
"20/09/12","13:40",0.0,31.4,64.2,1004.8,112.9,2.3,5.5,107.9,0.25,23.9,29.2,"13:36:40",1
"20/09/12","13:50",0.0,30.7,65.9,1004.1,100.9,2.1,4.0,105.7,0.16,23.6,29.1,"13:40:40",1
"20/09/12","14:00",0.0,30.8,66.7,1004.1,105.2,1.8,4.3,116.9,0.20,23.9,28.9,"13:59:12",1
"20/09/12","14:10",0.0,30.7,66.6,1004.3,100.7,1.7,4.8,108.6,0.18,23.8,28.7,"14:03:20",1
"20/09/12","14:20",0.0,30.9,66.4,1004.3,87.2,1.3,4.1,112.2,0.18,23.9,28.9,"14:13:52",1
"20/09/12","14:30",0.0,30.5,67.2,1004.3,80.8,1.7,3.3,124.2,0.11,23.8,28.7,"14:23:28",1
"20/09/12","14:40",0.0,30.5,68.2,1004.1,86.2,1.3,2.7,113.2,0.12,24.0,28.7,"14:32:56",1
"20/09/12","14:50",0.0,30.4,68.3,1003.6,92.7,1.5,3.9,113.6,0.10,23.9,28.7,"14:41:12",1
"20/09/12","15:00",0.0,30.2,69.2,1003.4,58.9,1.1,2.8,60.7,0.06,24.0,28.6,"14:58:00",1
"20/09/12","15:10",0.0,30.1,69.9,1003.1,53.9,1.2,3.1,24.6,0.09,24.0,28.7,"15:03:20",1
"20/09/12","15:20",0.0,30.3,70.4,1003.4,81.3,1.0,2.4,121.7,0.11,24.3,28.7,"15:14:40",1
"20/09/12","15:30",0.0,30.5,68.6,1003.4,124.0,0.8,2.5,100.2,0.10,24.1,28.7,"15:28:48",1
"20/09/12","15:40",0.0,30.7,67.6,1003.1,95.2,1.2,2.6,89.4,0.10,24.1,28.7,"15:35:04",1
"20/09/12","15:50",0.0,31.0,67.4,1003.4,101.8,1.0,2.1,82.9,0.12,24.3,28.6,"15:41:04",1
"20/09/12","16:00",0.0,31.1,66.4,1003.1,99.5,0.8,2.9,116.2,0.14,24.1,28.7,"15:55:28",1
"20/09/12","16:10",0.0,31.3,66.0,1003.8,111.2,0.8,2.4,104.2,0.14,24.2,28.7,"16:07:04",1
"20/09/12","16:20",0.0,31.1,66.7,1003.6,108.0,0.8,2.4,128.6,0.08,24.2,28.6,"16:14:32",1
"20/09/12","16:30",0.0,30.7,67.4,1003.4,106.7,1.0,3.5,64.4,0.04,24.0,28.5,"16:20:02",1
"20/09/12","16:40",0.0,30.3,68.2,1003.1,88.9,1.2,3.4,100.6,0.00,23.8,28.7,"16:30:16",1
"20/09/12","16:50",0.0,30.1,69.3,1003.4,89.1,1.2,2.5,106.4,0.00,23.9,28.3,"16:42:40",1
"20/09/12","17:00",0.0,29.9,69.8,1003.1,55.5,0.7,1.8,13.2,0.00,23.8,28.4,"16:58:48",1
"20/09/12","17:10",0.0,29.7,70.6,1003.4,286.0,0.3,1.9,160.9,0.00,23.8,28.0,"17:08:24",1
"20/09/12","17:20",0.0,29.6,70.9,1002.9,169.1,0.8,2.1,211.7,0.00,23.8,28.1,"17:10:40",1
"20/09/12","17:30",0.0,29.5,71.0,1003.1,148.8,0.7,1.6,134.2,0.00,23.7,28.2,"17:29:04",1
"20/09/12","17:40",0.0,29.6,71.9,1002.9,0.5,0.7,1.7,348.4,0.00,24.0,28.2,"17:39:04",1
"20/09/12","17:50",0.0,29.1,73.3,1002.6,354.1,0.6,1.8,359.1,0.00,23.9,28.0,"17:47:44",1
"20/09/12","18:00",0.0,28.8,74.0,1002.9,274.6,0.6,1.1,341.6,0.00,23.7,27.8,"17:50:16",1
"20/09/12","18:10",0.0,28.9,74.7,1003.1,256.2,0.6,1.6,197.5,0.00,24.0,28.0,"18:00:32",1
"20/09/12","18:20",0.0,28.5,75.6,1003.6,303.9,0.6,1.4,321.7,0.00,23.8,27.9,"18:11:52",1
"20/09/12","18:30",0.0,28.4,77.1,1003.6,306.3,1.0,1.8,344.4,0.00,24.0,27.9,"18:26:48",1
"20/09/12","18:40",0.0,28.1,78.4,1003.6,347.8,0.8,1.7,339.6,0.00,24.0,27.7,"18:38:48",1
"20/09/12","18:50",0.0,27.9,79.3,1003.8,323.2,0.8,1.6,332.7,0.00,24.0,27.9,"18:49:44",1
"20/09/12","19:00",0.0,27.5,80.5,1004.1,298.8,0.8,1.4,331.1,0.00,23.9,27.6,"18:50:16",1
"20/09/12","19:10",0.0,27.4,81.4,1004.3,313.5,1.0,1.8,329.7,0.00,24.0,27.6,"19:07:12",1
"20/09/12","19:20",0.0,27.4,81.7,1004.5,308.7,1.1,2.4,341.7,0.00,24.0,27.6,"19:15:28",1
"20/09/12","19:30",0.0,27.5,81.8,1004.5,16.9,0.6,1.4,308.8,0.00,24.1,27.6,"19:20:08",1
"20/09/12","19:40",0.0,27.3,81.9,1004.5,259.4,0.2,1.0,311.5,0.00,24.0,27.6,"19:38:00",1
"20/09/12","19:50",0.0,27.3,82.0,1004.8,288.3,0.6,1.0,320.0,0.00,24.0,27.4,"19:49:44",1
"20/09/12","20:00",0.0,27.1,82.1,1004.8,325.4,0.7,1.1,327.4,0.00,23.8,27.5,"19:54:40",1
"20/09/12","20:10",0.0,27.0,82.3,1004.8,30.3,0.3,1.1,65.3,0.00,23.8,27.4,"20:01:36",1
"20/09/12","20:20",0.0,26.9,82.6,1005.0,329.2,0.8,1.6,354.0,0.00,23.7,27.3,"20:18:40",1
"20/09/12","20:30",0.0,26.5,83.5,1005.2,339.9,1.5,2.0,342.5,0.00,23.5,27.3,"20:22:40",1
"20/09/12","20:40",0.0,26.3,84.1,1005.2,333.9,0.8,1.8,343.8,0.00,23.4,27.2,"20:30:32",1
"20/09/12","20:50",0.0,26.3,84.3,1005.0,325.4,0.8,1.7,330.5,0.00,23.5,27.0,"20:48:08",1
"20/09/12","21:00",0.0,26.2,84.4,1005.5,352.0,0.7,1.2,314.1,0.00,23.4,26.9,"20:54:48",1
"20/09/12","21:10",0.0,26.1,84.5,1005.5,336.7,0.5,1.3,329.3,0.00,23.3,27.3,"21:09:36",1
"20/09/12","21:20",0.0,26.0,84.8,1005.0,321.9,1.0,1.2,340.0,0.00,23.3,27.1,"21:15:28",1
"20/09/12","21:30",0.0,25.7,85.2,1005.2,326.3,0.3,0.9,347.2,0.00,23.1,26.9,"21:25:36",1
"20/09/12","21:40",0.0,25.7,85.6,1005.2,336.5,0.7,1.4,339.2,0.00,23.1,26.9,"21:36:16",1
"20/09/12","21:50",0.0,25.5,86.0,1005.0,344.3,0.7,1.2,124.1,0.00,23.0,26.9,"21:43:52",1
"20/09/12","22:00",0.0,25.3,86.3,1005.2,316.4,0.5,1.1,327.3,0.00,22.9,26.8,"21:58:48",1
"20/09/12","22:10",0.0,25.3,86.7,1005.7,315.6,0.7,1.2,333.5,0.00,23.0,26.7,"22:04:08",1
"20/09/12","22:20",0.0,25.3,87.0,1005.2,308.0,0.7,1.4,332.7,0.00,23.0,26.8,"22:11:28",1
"20/09/12","22:30",0.0,25.3,87.2,1005.2,288.9,0.6,1.6,341.5,0.00,23.1,26.8,"22:27:20",1
"20/09/12","22:40",0.0,25.2,87.3,1004.8,280.8,0.6,1.1,331.2,0.00,23.0,26.8,"22:39:44",1
"20/09/12","22:50",0.0,25.2,87.4,1005.0,334.4,1.0,1.4,334.4,0.00,23.0,26.5,"22:40:16",1
"20/09/12","23:00",0.0,25.3,87.4,1004.5,307.3,0.7,1.1,352.5,0.00,23.1,26.7,"22:50:16",1
"20/09/12","23:10",0.0,25.2,87.5,1004.8,302.1,0.8,1.4,334.9,0.00,23.0,26.6,"23:06:48",1
"20/09/12","23:20",0.0,25.3,87.5,1004.5,310.8,0.8,1.8,342.1,0.00,23.1,26.7,"23:11:20",1
"20/09/12","23:30",0.0,25.3,87.4,1004.8,304.5,0.7,1.4,344.6,0.00,23.1,26.5,"23:26:56",1
"20/09/12","23:40",0.0,25.4,87.3,1004.5,286.7,0.6,1.0,315.4,0.00,23.2,26.4,"23:34:32",1
"20/09/12","23:50",0.0,25.3,87.2,1004.5,273.1,0.7,1.2,242.4,0.00,23.1,26.4,"23:41:44",1
"20/09/12","24:00",0.0,25.4,87.2,1004.8,331.8,0.7,1.0,335.8,0.00,23.2,26.4,"23:51:36",1
